DW1174 Weather Reports


Display with metric or nautical units.
time (UTC)temp
F
wind
direction
speed
MPH
gust
MPH
rain 1hr
in
rain 24hr
in
rain mn
in
humidity
%
barometer
mb
20260831121732 69 189 2.0 5.0 0.00 0.12 0.03 98 1016.8
20260831121234 69 189 0.0 3.0 0.00 0.12 0.03 98 1016.8
20260831120726 69 189 1.0 3.0 0.00 0.12 0.03 98 1016.8
20260831120217 69 189 2.0 4.0 0.00 0.12 0.03 98 1016.8
20260831115712 69 189 3.0 4.0 0.00 0.12 0.03 98 1016.8
20260831115208 69 189 3.0 4.0 0.00 0.12 0.03 98 1016.8
20260831114704 69 189 3.0 4.0 0.00 0.12 0.03 98 1016.8
20260831114157 69 189 3.0 4.0 0.00 0.12 0.03 98 1016.8
20260831113649 69 189 3.0 4.0 0.00 0.12 0.03 98 1016.8
20260831113143 69 189 3.0 4.0 0.00 0.12 0.03 98 1016.6
20260831112641 69 189 3.0 5.0 0.00 0.12 0.03 98 1016.6
20260831112145 69 189 3.0 5.0 0.00 0.12 0.03 98 1016.5
20260831111852 69 189 3.0 6.0 0.00 0.12 0.03 98 1016.7
20260831111132 69 189 3.0 6.0 0.00 0.12 0.03 98 1016.5
20260831110620 69 189 3.0 5.0 0.00 0.12 0.03 98 1016.6
20260831110124 69 189 3.0 5.0 0.00 0.12 0.03 98 1016.4
20260831105841 69 189 3.0 4.0 0.00 0.12 0.03 98 1016.5
20260831105108 69 189 3.0 5.0 0.00 0.12 0.03 98 1016.5
20260831104607 69 189 1.0 5.0 0.00 0.12 0.03 98 1016.4
20260831104101 69 189 1.0 4.0 0.00 0.12 0.03 98 1016.3
20260831103559 69 189 1.0 5.0 0.00 0.12 0.03 98 1016.2
20260831103054 69 189 2.0 5.0 0.00 0.12 0.03 98 1016.1
20260831102540 69 189 3.0 6.0 0.00 0.12 0.03 98 1016.1
20260831102032 69 189 3.0 6.0 0.00 0.12 0.03 98 1016.1
20260831101514 69 191 3.0 6.0 0.00 0.12 0.03 98 1016.1
20260831101010 69 191 2.0 4.0 0.00 0.12 0.03 98 1016.1
20260831100507 69 191 1.0 4.0 0.01 0.12 0.03 98 1016.1
20260831100220 69 191 2.0 4.0 0.01 0.12 0.03 98 1016.2
20260831095444 69 191 3.0 4.0 0.01 0.12 0.03 98 1016.1
20260831094944 69 191 3.0 4.0 0.02 0.12 0.03 98 1016.2
20260831094856 69 191 2.0 5.0 0.02 0.12 0.03 98 1016.3
20260831093913 69 191 1.0 5.0 0.02 0.12 0.03 98 1016.3
20260831093359 69 191 0.0 4.0 0.02 0.12 0.03 98 1016.4
20260831092847 69 191 0.0 0.0 0.02 0.12 0.03 98 1016.3
20260831092806 68 191 0.0 0.0 0.02 0.12 0.03 98 1016.2
20260831091817 68 191 0.0 0.0 0.02 0.12 0.03 98 1016.2
20260831091317 68 191 1.0 4.0 0.02 0.12 0.03 98 1016.2
20260831091031 68 191 2.0 5.0 0.01 0.11 0.02 98 1016.3
20260831090245 68 191 1.0 5.0 0.01 0.11 0.02 98 1016.3
20260831085930 68 191 1.0 4.0 0.01 0.11 0.02 98 1016.3
20260831085212 68 191 2.0 4.0 0.01 0.11 0.02 98 1016.3
20260831084644 68 191 3.0 4.0 0.00 0.10 0.01 98 1016.1
20260831084111 68 191 3.0 4.0 0.00 0.10 0.01 98 1016.1
20260831083612 68 191 3.0 5.0 0.00 0.10 0.01 97 1016.2
20260831083104 68 191 2.0 5.0 0.00 0.10 0.01 97 1016.2
20260831082604 68 191 1.0 5.0 0.00 0.10 0.01 97 1016.2
20260831082318 68 191 0.0 3.0 0.00 0.10 0.01 97 1016.1
20260831081552 68 191 1.0 4.0 0.00 0.10 0.01 98 1016.1
20260831081037 68 191 3.0 4.0 0.00 0.10 0.01 98 1016.2
20260831080750 68 191 3.0 5.0 0.00 0.10 0.01 98 1016.1
20260831080655 68 191 3.0 5.0 0.00 0.10 0.01 98 1016.2
20260831075526 68 191 3.0 5.0 0.00 0.10 0.01 98 1016.1
20260831075018 68 191 1.0 5.0 0.00 0.10 0.01 98 1016.1
20260831074522 68 191 1.0 4.0 0.00 0.10 0.01 98 1016.1
20260831074008 68 191 2.0 4.0 0.00 0.10 0.01 98 1016.0
20260831073505 68 191 3.0 5.0 0.00 0.10 0.01 98 1016.0
20260831073000 68 191 3.0 5.0 0.00 0.10 0.01 98 1015.9
20260831072457 68 191 3.0 5.0 0.00 0.10 0.01 98 1016.1
20260831071954 68 191 3.0 5.0 0.00 0.10 0.01 98 1016.1
20260831071451 68 191 2.0 6.0 0.00 0.10 0.01 98 1016.2
20260831070946 68 191 2.0 6.0 0.00 0.10 0.01 98 1016.2
20260831070437 68 192 2.0 5.0 0.00 0.10 0.01 98 1016.3
20260831065938 68 192 3.0 5.0 0.00 0.10 0.01 98 1016.3
20260831065433 68 192 2.0 6.0 0.00 0.10 0.01 98 1016.3
20260831065158 68 192 1.0 6.0 0.00 0.10 0.01 98 1016.3
20260831064425 68 192 1.0 5.0 0.00 0.10 0.01 98 1016.4
20260831063929 68 192 2.0 5.0 0.00 0.10 0.01 98 1016.4
20260831063418 68 192 3.0 5.0 0.00 0.10 0.01 98 1016.4
20260831062912 68 192 3.0 5.0 0.00 0.10 0.01 98 1016.4
20260831062404 68 192 2.0 4.0 0.00 0.10 0.01 98 1016.4
20260831061904 68 192 4.0 5.0 0.00 0.10 0.01 98 1016.4
20260831061354 68 192 4.0 6.0 0.00 0.10 0.01 98 1016.3
20260831060852 68 192 4.0 6.0 0.00 0.10 0.01 98 1016.3
20260831060339 68 192 3.0 6.0 0.00 0.10 0.01 98 1016.4
20260831055837 68 194 3.0 5.0 0.00 0.10 0.01 98 1016.5
20260831055313 68 194 3.0 5.0 0.00 0.10 0.01 98 1016.4
20260831055039 68 194 1.0 4.0 0.00 0.10 0.01 98 1016.5
20260831054304 68 194 2.0 4.0 0.00 0.10 0.01 98 1016.4
20260831053807 68 194 2.0 4.0 0.00 0.10 0.01 98 1016.4
20260831053250 68 194 1.0 5.0 0.00 0.10 0.01 98 1016.4
20260831052749 68 194 1.0 5.0 0.00 0.10 0.01 98 1016.4
20260831052503 68 194 1.0 3.0 0.00 0.10 0.01 98 1016.4
20260831051741 68 194 2.0 3.0 0.01 0.10 0.01 98 1016.4
20260831051227 68 194 2.0 4.0 0.01 0.10 0.01 98 1016.3
20260831050726 68 194 2.0 4.0 0.01 0.10 0.01 98 1016.4
20260831050453 68 194 2.0 4.0 0.01 0.10 0.01 98 1016.4
20260831045709 68 195 1.0 4.0 0.01 0.10 0.01 98 1016.4
20260831045204 68 195 0.0 4.0 0.01 0.10 0.01 98 1016.6
20260831044708 68 195 2.0 4.0 0.02 0.10 0.01 98 1016.8
20260831044158 68 195 2.0 4.0 0.02 0.10 0.01 98 1016.8
20260831043915 68 195 2.0 3.0 0.03 0.10 0.01 98 1016.8
20260831043150 68 195 2.0 4.0 0.03 0.10 0.01 98 1017.0
20260831042652 68 195 1.0 4.0 0.03 0.10 0.01 98 1017.1
20260831042354 68 195 1.0 4.0 0.04 0.10 0.01 98 1017.0
20260831041628 68 195 0.0 2.0 0.03 0.09 0.00 98 1017.2
20260831041129 68 195 0.0 0.0 0.03 0.09 0.00 98 1017.7
20260831040631 68 195 0.0 0.0 0.03 0.09 0.00 98 1017.7
20260831040124 68 195 0.0 0.0 0.04 0.09 0.00 98 1017.9
20260831035628 68 195 0.0 0.0 0.04 0.09 0.09 98 1017.6
20260831035110 68 195 0.0 0.0 0.04 0.09 0.09 98 1017.4
20260831034602 68 195 0.0 0.0 0.03 0.08 0.08 98 1017.9
20260831034104 68 195 0.0 0.0 0.03 0.08 0.08 98 1017.8
20260831033558 68 195 0.0 0.0 0.02 0.07 0.07 98 1018.0
20260831033044 68 195 0.0 0.0 0.02 0.07 0.07 98 1017.9
20260831032515 68 195 0.0 0.0 0.02 0.07 0.07 98 1018.1
20260831032243 68 195 0.0 0.0 0.01 0.06 0.06 98 1018.2
20260831031512 68 195 0.0 0.0 0.01 0.06 0.06 98 1018.1
20260831031003 68 195 0.0 0.0 0.01 0.06 0.06 98 1017.6
20260831030506 68 195 0.0 0.0 0.00 0.05 0.05 98 1017.3
20260831025959 68 195 0.0 0.0 0.00 0.05 0.05 98 1017.3
20260831025429 68 195 0.0 0.0 0.00 0.05 0.05 98 1017.6
20260831024930 68 195 0.0 0.0 0.00 0.05 0.05 98 1017.4
20260831024432 68 195 0.0 3.0 0.00 0.05 0.05 98 1017.4
20260831023929 68 195 2.0 4.0 0.00 0.05 0.05 98 1017.6
20260831023922 68 195 3.0 4.0 0.00 0.05 0.05 98 1017.3
20260831023154 68 195 2.0 4.0 0.00 0.05 0.05 98 1017.4
20260831022422 68 195 0.0 4.0 0.00 0.05 0.05 98 1017.6
20260831021921 68 195 0.0 0.0 0.00 0.05 0.05 98 1017.7
20260831021624 69 195 0.0 0.0 0.00 0.05 0.05 98 1017.7
20260831020902 69 195 0.0 0.0 0.00 0.05 0.05 98 1017.7
20260831020626 69 195 0.0 0.0 0.00 0.05 0.05 98 1017.8
20260831015859 69 195 0.0 0.0 0.00 0.05 0.05 98 1017.9
20260831015329 69 195 0.0 0.0 0.00 0.05 0.05 98 1017.9
20260831014821 69 195 0.0 0.0 0.00 0.05 0.05 98 1018.0
20260831014319 69 195 0.0 0.0 0.00 0.05 0.05 98 1018.0
20260831014037 69 195 0.0 0.0 0.00 0.05 0.05 98 1018.0
20260831013802 69 195 0.0 0.0 0.00 0.05 0.05 98 1017.9
20260831013022 69 195 0.0 0.0 0.00 0.05 0.05 98 1017.9
20260831012256 69 195 0.0 0.0 0.00 0.05 0.05 98 1018.1
20260831011755 69 195 0.0 0.0 0.00 0.05 0.05 98 1018.2
20260831011252 69 195 0.0 0.0 0.00 0.05 0.05 98 1018.2
20260831010730 69 195 0.0 0.0 0.00 0.05 0.05 98 1018.3
20260831010227 70 195 0.0 0.0 0.00 0.05 0.05 98 1018.4
20260831005728 70 195 0.0 0.0 0.00 0.05 0.05 98 1018.6
20260831005224 70 195 0.0 0.0 0.00 0.05 0.05 98 1018.7
20260831004721 70 195 0.0 0.0 0.00 0.05 0.05 98 1018.7
20260831004221 70 195 0.0 0.0 0.00 0.05 0.05 98 1018.7
20260831003720 70 195 0.0 0.0 0.00 0.05 0.05 98 1018.5
20260831003658 70 195 0.0 0.0 0.00 0.05 0.05 98 1018.6
20260831002703 70 195 0.0 0.0 0.00 0.05 0.05 98 1018.6
20260831002201 70 195 0.0 0.0 0.00 0.05 0.05 98 1018.5
20260831001921 70 195 0.0 0.0 0.00 0.05 0.05 98 1018.4
20260831001159 70 195 0.0 0.0 0.00 0.05 0.05 98 1018.3
20260831000656 70 195 0.0 0.0 0.00 0.05 0.05 97 1018.1
20260831000151 70 195 0.0 0.0 0.00 0.05 0.05 97 1018.0
20260830235647 70 195 0.0 0.0 0.00 0.05 0.05 97 1018.0
20260830235137 70 195 0.0 0.0 0.00 0.05 0.05 97 1018.0
20260830234624 70 195 0.0 0.0 0.00 0.05 0.05 97 1017.8
20260830234105 70 195 0.0 0.0 0.00 0.05 0.05 97 1017.9
20260830233555 70 195 0.0 0.0 0.00 0.05 0.05 97 1017.9
20260830233517 70 195 0.0 0.0 0.00 0.05 0.05 97 1017.7
20260830232527 71 195 0.0 0.0 0.00 0.05 0.05 97 1017.4
20260830232006 70 195 0.0 0.0 0.00 0.05 0.05 97 1017.3
20260830231507 70 195 0.0 0.0 0.00 0.05 0.05 97 1017.3
20260830230956 71 195 0.0 0.0 0.00 0.05 0.05 96 1017.3
20260830230454 71 195 0.0 0.0 0.00 0.05 0.05 96 1017.3
20260830225952 71 195 0.0 0.0 0.00 0.05 0.05 96 1017.3
20260830225425 71 195 0.0 0.0 0.00 0.05 0.05 96 1017.3
20260830225149 71 195 0.0 0.0 0.00 0.05 0.05 96 1017.1
20260830224422 71 195 0.0 0.0 0.00 0.05 0.05 96 1017.0
20260830223917 71 195 0.0 0.0 0.00 0.05 0.05 96 1016.8
20260830223417 71 195 0.0 0.0 0.00 0.05 0.05 96 1016.8
20260830222921 71 195 0.0 0.0 0.00 0.05 0.05 96 1016.8
20260830222401 71 195 0.0 0.0 0.00 0.05 0.05 96 1016.9
20260830221905 71 195 0.0 0.0 0.00 0.05 0.05 95 1016.9
20260830221624 71 195 0.0 0.0 0.00 0.05 0.05 95 1017.0
20260830220859 71 195 0.0 0.0 0.00 0.05 0.05 95 1017.0
20260830220357 71 195 0.0 0.0 0.00 0.05 0.05 95 1017.1
20260830215850 72 195 0.0 0.0 0.00 0.05 0.05 95 1017.2
20260830215345 72 195 0.0 0.0 0.00 0.05 0.05 94 1017.0
20260830214845 72 195 0.0 0.0 0.00 0.05 0.05 94 1016.9
20260830214345 72 195 0.0 0.0 0.00 0.05 0.05 94 1016.7
20260830213836 72 195 0.0 0.0 0.00 0.05 0.05 94 1016.8
20260830213322 72 195 0.0 0.0 0.00 0.05 0.05 94 1016.9
20260830213043 72 195 0.0 0.0 0.00 0.05 0.05 94 1016.9
20260830212317 72 195 0.0 0.0 0.00 0.05 0.05 94 1016.9
20260830211810 72 195 0.0 0.0 0.00 0.05 0.05 94 1016.9
20260830211313 72 195 0.0 0.0 0.00 0.05 0.05 94 1017.0
20260830211030 72 195 0.0 0.0 0.00 0.05 0.05 94 1017.1
20260830210250 72 195 0.0 0.0 0.00 0.05 0.05 94 1017.3
20260830205959 71 195 0.0 0.0 0.00 0.05 0.05 94 1017.2
20260830205216 71 195 0.0 0.0 0.00 0.05 0.05 94 1017.2
20260830204707 71 195 0.0 1.0 0.00 0.05 0.05 93 1017.2
20260830204152 71 195 0.0 1.0 0.00 0.05 0.05 94 1017.4
20260830203646 71 195 0.0 0.0 0.00 0.05 0.05 94 1017.4
20260830203146 71 195 0.0 0.0 0.00 0.05 0.05 96 1017.4
20260830202644 71 195 0.0 0.0 0.00 0.05 0.05 96 1017.2
20260830202133 70 195 0.0 0.0 0.00 0.05 0.05 96 1017.2
20260830201616 70 195 0.0 0.0 0.00 0.05 0.05 96 1017.1
20260830201112 70 195 0.0 0.0 0.00 0.05 0.05 96 1017.1
20260830200557 70 196 0.0 0.0 0.00 0.05 0.05 96 1017.1
20260830200047 70 196 0.0 0.0 0.00 0.05 0.05 96 1017.0
20260830195745 70 196 0.0 0.0 0.00 0.05 0.05 96 1017.1
20260830195017 70 196 0.0 1.0 0.00 0.05 0.05 96 1017.1
20260830194521 70 196 0.0 1.0 0.00 0.05 0.05 96 1017.2
20260830194008 70 196 0.0 0.0 0.00 0.05 0.05 96 1017.2
20260830193505 70 196 0.0 0.0 0.01 0.05 0.05 96 1017.4
20260830192957 70 196 0.0 0.0 0.01 0.05 0.05 96 1017.6
20260830192451 70 196 0.0 0.0 0.01 0.05 0.05 96 1017.7
20260830192143 70 196 0.0 0.0 0.01 0.05 0.05 96 1017.8
20260830191650 70 196 0.0 0.0 0.01 0.05 0.05 96 1017.8
20260830190846 70 196 0.0 0.0 0.01 0.05 0.05 96 1017.9
20260830190345 70 196 0.0 0.0 0.01 0.05 0.05 96 1018.0
20260830185832 70 196 0.0 0.0 0.01 0.05 0.05 96 1018.1
20260830185331 70 196 0.0 0.0 0.02 0.05 0.05 95 1018.1
20260830184815 70 196 0.0 0.0 0.02 0.05 0.05 95 1018.3
20260830184539 70 196 0.0 0.0 0.02 0.05 0.05 95 1018.4
20260830183811 70 196 0.0 0.0 0.03 0.05 0.05 95 1018.4
20260830183308 70 196 0.0 0.0 0.02 0.04 0.04 95 1018.5
20260830183030 70 196 0.0 0.0 0.03 0.04 0.04 95 1018.6
20260830182522 70 196 0.0 0.0 0.03 0.04 0.04 94 1018.7
20260830181758 70 196 0.0 0.0 0.04 0.04 0.04 94 1018.8
20260830181247 70 196 0.0 0.0 0.04 0.04 0.04 94 1018.9
20260830180748 71 196 0.0 0.0 0.04 0.04 0.04 94 1019.1
20260830180240 71 196 0.0 0.0 0.04 0.04 0.04 94 1019.1
20260830175710 71 196 0.0 0.0 0.03 0.03 0.03 93 1019.1
20260830175200 71 196 0.0 4.0 0.03 0.03 0.03 93 1019.2
20260830174646 71 196 0.0 4.0 0.03 0.03 0.03 93 1019.4
20260830174141 71 195 0.0 0.0 0.03 0.03 0.03 92 1019.4
20260830173643 71 195 0.0 0.0 0.02 0.02 0.02 92 1019.5
20260830173114 71 195 0.0 0.0 0.02 0.02 0.02 91 1019.5
20260830172618 71 195 0.0 0.0 0.01 0.01 0.01 91 1019.4
20260830172109 71 194 0.0 0.0 0.01 0.01 0.01 90 1019.4
20260830171608 71 194 0.0 0.0 0.00 0.00 0.00 90 1019.3
20260830171039 71 194 0.0 0.0 0.00 0.00 0.00 89 1019.4
20260830170527 71 194 0.0 0.0 0.00 0.00 0.00 90 1019.4
20260830170017 71 194 0.0 0.0 0.00 0.00 0.00 90 1019.3
20260830165512 71 194 0.0 0.0 0.00 0.00 0.00 90 1019.4
20260830165009 71 194 0.0 0.0 0.00 0.00 0.00 90 1019.4
20260830164455 71 194 0.0 0.0 0.00 0.00 0.00 90 1019.4
20260830164157 71 194 0.0 0.0 0.00 0.00 0.00 90 1019.4
20260830163441 71 194 0.0 0.0 0.00 0.00 0.00 90 1019.4
20260830162922 71 194 0.0 0.0 0.00 0.00 0.00 90 1019.3
20260830162410 71 194 0.0 0.0 0.00 0.00 0.00 90 1019.4
20260830161911 71 194 0.0 0.0 0.00 0.00 0.00 90 1019.3
20260830161411 70 194 0.0 0.0 0.00 0.00 0.00 89 1019.3
20260830160910 70 194 0.0 0.0 0.00 0.00 0.00 89 1019.3
20260830160349 70 194 0.0 0.0 0.00 0.00 0.00 89 1019.4
20260830155844 70 194 0.0 0.0 0.00 0.00 0.00 90 1019.4
20260830155342 70 194 0.0 0.0 0.00 0.00 0.00 90 1019.5
20260830154836 70 194 0.0 0.0 0.00 0.00 0.00 90 1019.3
20260830154335 70 194 0.0 0.0 0.00 0.00 0.00 90 1019.3
20260830153812 70 194 0.0 0.0 0.00 0.00 0.00 90 1019.4
20260830153251 70 194 0.0 0.0 0.00 0.00 0.00 90 1019.4
20260830153006 70 194 0.0 0.0 0.00 0.00 0.00 88 1019.3
20260830152243 71 194 0.0 0.0 0.00 0.00 0.00 88 1019.2
20260830151741 71 194 0.0 0.0 0.00 0.00 0.00 87 1019.3
20260830151239 71 194 0.0 0.0 0.00 0.00 0.00 86 1019.4
20260830150734 71 194 0.0 0.0 0.00 0.00 0.00 84 1019.2
20260830150236 71 194 0.0 0.0 0.00 0.00 0.00 83 1019.1
20260830145944 71 194 0.0 0.0 0.00 0.00 0.00 82 1019.2
20260830145215 71 194 0.0 0.0 0.00 0.00 0.00 82 1019.1
20260830144712 71 194 0.0 0.0 0.00 0.00 0.00 83 1019.1
20260830144214 71 194 0.0 0.0 0.00 0.00 0.00 82 1019.1
20260830143708 71 194 0.0 0.0 0.00 0.00 0.00 83 1019.1
20260830143211 71 194 0.0 0.0 0.00 0.00 0.00 82 1019.0
20260830142652 71 194 0.0 0.0 0.00 0.00 0.00 83 1019.0
20260830142145 71 194 0.0 0.0 0.00 0.00 0.00 83 1019.0
20260830141636 71 194 0.0 0.0 0.00 0.00 0.00 82 1018.9
20260830141123 71 194 0.0 0.0 0.00 0.00 0.00 82 1018.8
20260830140552 71 194 0.0 0.0 0.00 0.00 0.00 82 1018.8
20260830140043 71 194 0.0 0.0 0.00 0.00 0.00 82 1018.8
20260830135534 71 194 0.0 0.0 0.00 0.00 0.00 82 1018.8
20260830135244 71 194 0.0 0.0 0.00 0.00 0.00 82 1018.7
20260830134742 71 194 0.0 0.0 0.00 0.00 0.00 82 1018.5
20260830133939 71 194 0.0 0.0 0.00 0.00 0.00 82 1018.4
20260830133418 71 194 0.0 0.0 0.00 0.00 0.00 82 1018.3
20260830132908 70 194 1.0 3.0 0.00 0.00 0.00 82 1018.2
20260830132403 70 194 1.0 3.0 0.00 0.00 0.00 82 1018.0
20260830131901 70 194 0.0 3.0 0.00 0.00 0.00 82 1017.9
20260830131351 70 194 2.0 4.0 0.00 0.00 0.00 82 1017.9
20260830130824 70 194 2.0 4.0 0.00 0.00 0.00 82 1017.8
20260830130315 70 194 2.0 4.0 0.00 0.00 0.00 82 1017.8
20260830125805 70 194 2.0 4.0 0.00 0.00 0.00 81 1017.8
20260830125513 70 194 2.0 4.0 0.00 0.00 0.00 81 1017.8
20260830124749 70 194 3.0 4.0 0.00 0.00 0.00 81 1017.9
20260830124248 70 194 2.0 4.0 0.00 0.00 0.00 81 1018.0
20260830123949 70 194 2.0 4.0 0.00 0.00 0.00 81 1018.1
20260830123202 70 194 2.0 3.0 0.00 0.00 0.00 81 1018.1
20260830122645 69 194 2.0 3.0 0.00 0.00 0.00 81 1018.0
20260830122144 70 194 2.0 3.0 0.00 0.00 0.00 81 1018.0